Wind_Speed
38 38 38 38 38 39 40 41 43 44 45 46 47 47 47 46 44 44 43 43 42 41 41 42 42 43 43 43 42 42 41 41 41 41 41 42 42 42 43 43 43 43
42 43 43 43 43 44 45 46 47 48 49 49 48 47 47 46 45 44 44 43 42 41 40 39 39 40 41 41 42 42 43 43 43 43 42 42 43 43 44 44 44 44
45 46 47 47 47 47 48 48 48 48 48 48 48 47 46 45 44 44 44 43 43 42 40 39 39 38 39 40 41 41 42 43 44 44 44 43 43 44 44 45 45 45
48 48 48 49 49 50 49 49 48 47 47 46 45 45 44 44 44 43 43 43 43 42 42 42 41 40 39 39 40 41 42 43 44 44 44 44 44 44 44 44 45 45
49 49 50 50 50 50 48 47 46 45 45 44 42 42 42 42 42 41 41 40 41 41 41 42 42 41 41 40 40 41 42 43 44 45 45 45 44 45 45 45 46 46
46 47 48 48 47 46 45 45 44 44 43 42 41 41 41 41 41 41 41 40 39 39 39 40 40 41 42 42 42 42 42 43 44 45 46 47 46 46 46 47 47 47
45 45 45 45 45 45 45 45 44 44 43 43 42 42 42 42 42 42 43 43 43 42 42 42 41 42 42 43 44 44 44 45 45 46 46 48 48 49 49 49 50 50
45 45 45 44 44 44 44 44 44 44 43 42 42 41 41 41 41 41 42 43 44 44 45 45 45 45 46 46 47 47 47 48 48 49 49 50 50 51 51 52 53 53
42 42 42 41 41 40 40 40 40 39 39 39 38 38 39 39 40 40 41 42 43 44 45 46 47 48 49 49 50 50 51 50 50 51 52 52 53 53 53 54 55 56
37 36 36 36 36 35 35 34 34 34 35 35 36 36 37 38 40 41 42 43 44 45 46 47 48 49 50 51 52 53 53 53 53 52 53 53 53 54 55 56 57 58
33 33 33 34 34 33 33 33 34 34 35 36 37 39 40 41 43 44 45 46 47 48 48 49 50 50 51 52 53 54 55 55 56 55 55 55 55 55 55 56 57 57
32 33 33 34 34 34 34 35 36 37 38 39 41 42 44 45 46 46 47 47 48 48 49 49 50 50 51 52 54 55 56 57 58 58 59 59 59 59 59 58 58 58
33 34 34 34 35 36 37 38 39 40 41 43 44 46 47 47 47 47 47 47 47 47 47 48 49 50 51 52 53 55 56 58 59 60 61 62 62 63 63 64 64 63
34 34 35 36 37 39 40 41 42 43 44 46 46 46 46 46 46 46 45 45 45 46 46 47 47 48 49 51 53 54 56 58 59 61 62 63 64 65 66 67 67 68
35 36 37 39 40 42 43 44 45 45 45 45 45 44 44 44 44 44 44 44 44 44 45 46 47 48 49 51 54 55 57 58 60 61 63 65 66 67 68 69 70 71
37 39 40 41 43 43 44 44 44 44 43 43 42 42 42 43 43 43 44 44 44 45 45 46 47 49 51 53 56 58 59 61 62 63 65 67 68 69 69 70 70 71
40 41 42 42 43 43 43 43 42 42 42 42 42 42 42 42 42 42 43 43 44 45 46 47 49 51 53 56 58 60 62 64 65 66 66 67 67 67 68 68 68 69
41 41 41 42 42 42 42 42 42 42 42 42 42 42 41 41 41 42 42 43 45 46 47 50 52 54 56 58 60 62 64 66 67 67 66 65 65 66 67 68 69 70
39 40 40 41 41 42 42 42 42 42 42 42 41 41 41 41 42 42 44 45 46 48 49 52 54 56 59 61 62 64 65 66 66 65 65 65 66 67 69 70 72 73
38 39 40 41 42 42 42 42 42 41 41 41 40 41 41 42 42 44 45 47 49 50 52 54 56 58 61 62 64 64 63 64 64 65 66 67 68 69 71 72 72 71
38 39 41 41 42 42 42 41 40 40 39 39 40 41 41 42 43 45 47 48 50 53 55 57 58 60 62 62 62 61 62 63 64 66 67 68 68 69 69 68 66 63
39 40 41 41 41 41 40 39 39 38 38 39 40 41 42 43 44 46 48 50 52 55 57 59 60 61 61 60 59 60 62 63 64 65 66 66 67 66 64 61 59 57
39 40 40 40 40 39 38 38 37 38 39 40 41 41 42 44 45 47 49 52 54 57 59 61 61 60 58 58 59 61 62 62 62 63 64 64 63 60 57 56 55 54
39 39 40 39 39 38 38 37 38 38 39 40 41 42 43 45 47 49 51 53 56 58 60 60 59 57 57 58 59 59 59 60 61 62 62 60 58 55 54 53 51 49
38 39 39 39 38 38 38 38 38 39 40 41 42 44 45 47 49 51 53 55 57 58 59 58 56 55 56 56 56 56 57 58 59 60 59 56 54 53 52 49 46 44
38 39 39 39 38 38 38 38 38 39 40 42 43 45 47 48 50 53 55 56 58 57 56 55 54 55 54 53 53 54 56 57 58 57 54 53 52 52 49 46 44 43
Wind_Direction
310 310 309 307 305 303 302 301 301 301 301 300 300 300 301 301 301 301 301 301 300 298 296 295 294 293 292 292 291 291 290 288 286 284 283 283 282 281 280 280 280 279
308 307 306 304 303 302 301 301 301 301 302 302 301 300 299 298 298 298 298 298 297 295 294 292 290 288 287 286 285 285 284 284 283 282 280 279 278 277 276 275 274 274
307 307 307 306 306 305 305 304 303 302 302 301 300 300 299 298 297 296 296 295 294 293 292 290 287 285 282 280 279 278 277 277 276 277 277 276 276 274 273 272 272 271
309 308 308 308 307 306 305 304 304 302 301 300 299 298 297 296 295 295 294 292 291 291 290 289 288 286 283 279 277 275 274 274 273 272 272 272 273 272 271 270 269 269
304 304 304 304 304 304 304 304 303 302 301 300 299 297 296 295 294 293 292 291 289 288 287 287 287 287 285 283 280 276 274 273 273 273 271 270 271 271 271 270 269 268
301 300 301 301 302 303 303 303 303 302 301 300 299 299 298 297 296 295 295 294 292 291 289 287 286 286 285 285 284 282 279 276 274 273 272 271 271 271 271 271 270 269
301 300 300 300 300 300 299 299 299 299 299 299 298 298 297 296 295 294 294 294 294 293 293 292 290 289 287 286 284 283 282 281 279 277 275 273 272 271 272 272 271 270
298 297 297 296 295 295 295 295 295 295 295 295 295 294 294 294 293 293 293 292 292 292 293 293 293 292 292 290 289 287 285 284 282 281 279 277 275 273 272 272 272 271
296 295 295 294 294 294 294 294 294 294 294 293 293 293 294 294 294 294 294 293 292 292 291 291 291 291 291 291 291 290 289 287 286 285 283 282 280 277 275 273 272 271
296 296 296 297 298 298 298 297 296 295 295 294 294 294 295 295 294 294 294 293 292 291 290 289 289 288 288 288 288 288 287 287 287 286 285 285 284 282 281 279 277 274
295 294 295 297 299 299 298 297 296 295 295 294 294 294 295 295 295 294 294 293 292 292 291 290 289 288 287 286 286 286 285 285 285 285 284 284 284 283 282 281 280 279
291 292 294 296 297 297 297 296 296 296 295 295 296 296 296 296 296 295 294 294 293 292 291 291 290 290 289 288 287 286 286 286 285 285 285 284 284 283 283 282 281 280
290 292 294 296 296 296 296 296 295 295 295 295 296 296 296 296 295 294 294 293 292 292 291 291 291 291 290 290 289 289 288 287 287 286 286 285 285 284 283 282 282 281
289 291 293 294 294 294 293 293 293 294 294 295 295 295 295 294 293 293 292 292 292 292 293 293 293 293 292 292 291 290 290 289 289 288 287 286 286 285 284 283 283 282
288 290 291 291 291 291 292 292 293 293 294 294 294 294 294 293 293 294 294 294 295 295 295 295 295 294 294 293 292 292 292 291 290 290 289 288 288 287 286 285 284 284
289 290 290 291 291 291 292 292 293 293 294 294 295 295 295 295 296 296 297 297 297 297 296 295 295 295 294 294 294 294 294 293 292 292 291 291 290 289 288 287 286 285
291 292 292 292 292 293 293 294 295 296 296 297 297 297 297 297 298 298 298 297 297 297 296 296 296 296 295 296 296 297 297 296 295 294 293 292 292 291 290 289 288 287
293 294 294 294 295 296 297 298 299 299 299 300 299 299 299 299 298 298 297 297 297 297 297 297 297 297 298 298 298 298 298 298 297 296 294 294 293 292 291 291 290 289
295 295 296 297 298 299 300 300 301 301 301 301 301 301 301 300 299 299 298 298 298 298 298 298 298 299 300 300 301 300 299 298 297 296 295 295 294 293 292 292 291 290
296 296 297 299 299 300 301 301 302 302 302 302 302 301 300 300 299 299 300 300 300 300 300 300 301 302 302 302 302 300 299 298 297 297 296 296 295 294 294 293 292 291
296 296 297 298 299 300 301 302 302 302 302 301 300 300 300 300 301 301 301 301 301 302 302 303 304 305 304 302 301 299 298 298 297 297 296 296 295 295 295 294 291 289
295 296 298 299 300 301 301 302 302 302 301 300 299 300 301 302 302 302 302 303 303 304 305 305 306 305 303 301 300 299 299 298 297 297 296 296 296 296 295 292 289 288
297 298 299 300 300 301 301 301 301 300 300 299 300 302 303 303 303 303 304 305 306 306 307 307 307 304 302 302 301 300 300 299 298 298 298 298 298 296 294 291 289 287
298 300 300 300 300 300 300 300 300 300 300 301 303 303 304 304 305 305 306 307 308 309 309 308 306 304 303 303 302 302 302 301 301 301 300 300 298 295 293 291 288 286
300 301 301 301 301 300 300 300 300 300 301 303 304 305 305 306 307 307 308 309 310 310 309 306 305 304 304 304 304 304 304 303 303 303 302 300 297 295 293 291 288 286
301 302 302 302 301 300 299 299 300 301 303 304 305 306 306 308 309 309 310 311 312 310 307 305 305 305 305 306 307 307 306 306 305 304 302 299 297 296 294 290 288 286
Height
3099 3098 3097 3097 3096 3095 3094 3093 3092 3092 3091 3091 3090 3089 3088 3087 3086 3084 3082 3081 3081 3080 3080 3079 3078 3077 3076 3075 3073 3072 3072 3071 3071 3070 3069 3068 3067 3066 3065 3064 3063 3062
3095 3094 3093 3092 3091 3090 3089 3088 3087 3086 3085 3084 3084 3083 3082 3081 3080 3079 3077 3076 3075 3074 3073 3073 3072 3071 3071 3069 3068 3067 3066 3065 3065 3064 3063 3062 3061 3060 3059 3058 3057 3056
3089 3088 3087 3086 3085 3083 3082 3081 3081 3080 3079 3078 3077 3076 3076 3075 3074 3072 3071 3070 3069 3069 3068 3067 3066 3065 3064 3063 3062 3061 3060 3059 3058 3058 3057 3056 3055 3054 3053 3052 3051 3050
3083 3082 3081 3080 3078 3077 3076 3075 3075 3074 3073 3072 3071 3071 3070 3069 3067 3066 3065 3064 3064 3063 3062 3061 3060 3059 3058 3057 3056 3055 3054 3053 3052 3051 3051 3050 3049 3048 3047 3046 3045 3044
3079 3078 3077 3075 3073 3072 3071 3070 3069 3068 3067 3066 3066 3065 3064 3063 3061 3060 3060 3059 3058 3058 3057 3056 3054 3053 3052 3051 3050 3049 3048 3046 3045 3044 3044 3044 3043 3042 3040 3039 3038 3038
3076 3075 3073 3071 3070 3068 3067 3065 3064 3063 3062 3061 3060 3059 3058 3057 3055 3054 3053 3053 3052 3051 3051 3050 3049 3048 3046 3045 3044 3043 3041 3040 3039 3038 3037 3037 3036 3036 3034 3032 3031 3031
3072 3070 3069 3068 3066 3065 3063 3062 3060 3059 3058 3057 3056 3054 3053 3052 3051 3050 3049 3048 3046 3045 3045 3044 3043 3042 3040 3038 3037 3036 3035 3034 3033 3032 3031 3030 3029 3029 3028 3026 3025 3024
3068 3066 3065 3064 3063 3061 3060 3058 3057 3056 3055 3053 3052 3051 3049 3048 3047 3046 3045 3043 3042 3041 3039 3038 3036 3035 3033 3031 3030 3029 3028 3027 3026 3024 3024 3023 3023 3022 3021 3020 3018 3017
3063 3062 3060 3059 3058 3057 3055 3054 3053 3052 3050 3049 3048 3047 3045 3044 3042 3041 3040 3039 3038 3036 3034 3033 3031 3029 3027 3025 3023 3021 3020 3019 3018 3017 3015 3015 3014 3014 3014 3013 3011 3011
3057 3056 3055 3054 3052 3051 3050 3049 3048 3047 3045 3044 3043 3042 3041 3039 3038 3036 3035 3033 3032 3030 3029 3027 3025 3023 3021 3019 3016 3014 3012 3011 3010 3009 3008 3007 3006 3005 3005 3004 3003 3003
3053 3051 3050 3049 3048 3046 3045 3044 3043 3042 3041 3039 3038 3037 3036 3034 3033 3031 3029 3028 3026 3024 3022 3020 3018 3016 3014 3012 3010 3007 3005 3004 3003 3001 3000 2999 2998 2997 2996 2995 2994 2994
3048 3047 3046 3045 3043 3042 3041 3039 3038 3037 3035 3034 3033 3031 3030 3028 3027 3025 3023 3021 3019 3017 3015 3013 3011 3008 3006 3004 3002 2999 2997 2996 2995 2993 2992 2991 2990 2990 2988 2987 2986 2985
3044 3043 3042 3041 3039 3038 3036 3035 3033 3032 3031 3029 3027 3026 3024 3022 3020 3018 3016 3014 3013 3011 3009 3006 3004 3002 3000 2997 2994 2992 2990 2988 2987 2985 2984 2982 2981 2980 2979 2978 2977 2975
3040 3039 3038 3037 3035 3033 3032 3030 3029 3027 3026 3024 3022 3020 3018 3016 3014 3012 3010 3009 3007 3005 3003 3000 2998 2996 2993 2991 2988 2985 2983 2981 2979 2977 2975 2974 2972 2971 2970 2968 2967 2965
3037 3036 3034 3033 3031 3029 3027 3025 3024 3022 3020 3018 3016 3014 3012 3010 3008 3006 3004 3003 3001 2999 2997 2994 2992 2990 2987 2984 2981 2978 2976 2974 2972 2970 2967 2965 2963 2961 2960 2959 2957 2955
3032 3031 3029 3028 3026 3024 3022 3020 3019 3017 3015 3013 3011 3009 3007 3005 3003 3000 2998 2996 2995 2993 2991 2989 2986 2984 2981 2978 2974 2971 2969 2966 2964 2962 2959 2956 2953 2951 2950 2948 2947 2944
3027 3025 3024 3022 3020 3018 3016 3015 3013 3011 3009 3008 3006 3004 3002 3000 2998 2995 2993 2991 2989 2987 2985 2983 2980 2978 2974 2971 2968 2965 2960 2957 2955 2953 2950 2947 2944 2941 2938 2937 2935 2934
3021 3019 3018 3016 3014 3012 3011 3009 3007 3005 3003 3002 3000 2998 2996 2994 2992 2990 2988 2986 2983 2982 2979 2976 2974 2971 2967 2964 2961 2957 2952 2948 2945 2942 2940 2937 2935 2932 2928 2926 2924 2922
3015 3013 3012 3010 3008 3006 3005 3003 3001 2999 2997 2995 2994 2992 2990 2988 2986 2984 2982 2980 2977 2975 2973 2970 2967 2964 2960 2956 2952 2949 2944 2939 2936 2933 2930 2928 2925 2922 2918 2915 2912 2909
3010 3008 3006 3004 3003 3001 2999 2997 2995 2994 2992 2990 2988 2986 2984 2982 2981 2978 2976 2974 2971 2968 2966 2963 2960 2956 2952 2948 2944 2940 2935 2931 2927 2924 2921 2918 2915 2911 2908 2904 2900 2896
3005 3003 3001 2999 2998 2996 2994 2992 2990 2988 2987 2985 2983 2981 2979 2977 2975 2973 2970 2968 2964 2961 2958 2956 2952 2948 2944 2940 2936 2931 2927 2923 2919 2916 2912 2908 2905 2901 2897 2893 2889 2886
3000 2998 2996 2994 2993 2991 2989 2987 2985 2983 2982 2980 2978 2976 2974 2972 2970 2967 2964 2961 2958 2954 2950 2948 2944 2940 2935 2931 2927 2923 2919 2915 2911 2906 2902 2899 2895 2891 2887 2883 2880 2877
2995 2993 2991 2989 2987 2986 2984 2982 2980 2978 2976 2974 2972 2971 2969 2966 2964 2961 2958 2955 2951 2947 2943 2940 2936 2932 2927 2923 2919 2914 2910 2906 2901 2897 2893 2889 2885 2881 2877 2874 2871 2869
2989 2988 2986 2984 2982 2980 2979 2977 2975 2973 2971 2969 2967 2965 2963 2960 2957 2955 2951 2948 2944 2940 2935 2931 2928 2924 2920 2916 2911 2906 2901 2896 2892 2887 2883 2879 2875 2872 2869 2866 2863 2861
2984 2982 2980 2979 2977 2975 2973 2972 2970 2967 2965 2963 2961 2958 2956 2953 2950 2947 2944 2941 2937 2933 2928 2923 2920 2917 2913 2909 2904 2899 2893 2888 2883 2877 2873 2869 2866 2863 2861 2858 2856 2855
2979 2977 2975 2973 2971 2970 2968 2966 2964 2962 2960 2957 2955 2952 2949 2947 2943 2940 2937 2933 2929 2925 2921 2917 2913 2910 2906 2902 2897 2892 2886 2880 2875 2869 2865 2861 2858 2855 2853 2851 2850 2848